7 * 24
多渠道服务支持
STARLINK-37757(NORAD编号:69244)是SpaceX星链(Starlink)互联网卫星星座中的一员,属于低轨通信卫星。星链项目旨在构建全球覆盖的天基互联网系统,为地面提供低成本、高性能的宽带接入服务。 该卫星运行在600公里以下的近地轨道,SpaceX对星链卫星采用可完全烧毁的设计理念,若卫星出现故障,会在5年内通过大气自然坠入大气层焚毁,减少空间碎片,保障轨道安全。作为星链组网的卫星之一,它为星座的全球网络覆盖提供支撑,助力实现偏远地区网络接入等服务。
美国
(US)
| 数据来源 | 国际轨道数据 |
| 星历时间: | 2026-07-27T07:28:43+0800 1天前 查看轨道信息 |
| 半长轴: | 6840.804km |
| 偏心率: | 0.0000217 |
| 轨道倾角: | 53.160° |
| 近地点辐角 | 55.785° |
| 升交点赤经 | 53.256° |
| 平近点角 | 304.317° |
| 近地点: | 462.518km |
| 远地点: | 462.816km |
| 周期: | 93.847分钟 |
| 每日圈数: | 15.344124 |